EW1617 Weather Reports


Display with metric or nautical units.
time (UTC)temp
F
wind
direction
speed
MPH
gust
MPH
rain 1hr
in
rain 24hr
in
rain mn
in
humidity
%
barometer
mb
20260509072507 55 108 1.0 5.0 0.00 0.00 0.00 94 1022.7
20260509072007 55 270 0.0 1.0 0.00 0.00 0.00 94 1022.7
20260509071507 56 289 0.0 2.0 0.00 0.00 0.00 94 1022.7
20260509071007 56 365 0.0 1.0 0.00 0.00 0.00 94 1022.7
20260509070507 56 365 0.0 0.0 0.00 0.00 0.00 94 1022.7
20260509070007 56 346 2.0 4.0 0.00 0.00 0.00 94 1022.7
20260509065507 56 293 1.0 3.0 0.00 0.00 0.00 93 1022.7
20260509065007 57 315 1.0 4.0 0.00 0.00 0.00 93 1022.7
20260509064507 57 315 0.0 0.0 0.00 0.00 0.00 93 1022.7
20260509064007 57 288 1.0 2.0 0.00 0.00 0.00 93 1022.7
20260509063508 57 270 1.0 5.0 0.00 0.00 0.00 93 1022.7
20260509063006 57 117 1.0 4.0 0.00 0.00 0.00 92 1022.7
20260509062507 57 45 3.0 6.0 0.00 0.00 0.00 92 1022.7
20260509062008 58 238 3.0 6.0 0.00 0.00 0.00 92 1022.7
20260509061507 58 261 5.0 6.0 0.00 0.00 0.00 92 1022.7
20260509061007 58 306 2.0 4.0 0.00 0.00 0.00 91 1022.7
20260509060507 58 162 3.0 5.0 0.00 0.00 0.00 91 1022.7
20260509060007 58 252 3.0 5.0 0.00 0.00 0.00 89 1022.7
20260509055507 59 315 2.0 5.0 0.00 0.00 0.00 89 1022.7
20260509055007 59 234 3.0 5.0 0.00 0.00 0.00 88 1022.7
20260509054507 59 0 0.0 2.0 0.00 0.00 0.00 87 1022.6
20260509054007 59 189 1.0 3.0 0.00 0.00 0.00 86 1022.4
20260509053507 59 315 0.0 1.0 0.00 0.00 0.00 85 1022.4
20260509053007 60 315 1.0 3.0 0.00 0.00 0.00 84 1022.4
20260509052507 60 315 0.0 1.0 0.00 0.00 0.00 83 1022.4
20260509052007 60 315 0.0 0.0 0.00 0.00 0.00 83 1022.4
20260509051507 60 315 0.0 1.0 0.00 0.00 0.00 83 1022.4
20260509051006 60 315 0.0 0.0 0.00 0.00 0.00 82 1022.4
20260509050507 60 315 0.0 0.0 0.00 0.00 0.00 81 1022.4
20260509050007 60 315 0.0 0.0 0.00 0.00 0.00 80 1022.4
20260509045506 61 315 0.0 0.0 0.00 0.00 0.00 80 1022.2
20260509045007 61 288 1.0 4.0 0.00 0.00 0.00 79 1022.0
20260509044507 61 144 1.0 2.0 0.00 0.00 0.00 79 1022.0
20260509044007 61 0 0.0 1.0 0.00 0.00 0.00 78 1022.0
20260509043508 61 0 0.0 1.0 0.00 0.00 0.00 76 1022.0
20260509043007 62 63 1.0 3.0 0.00 0.00 0.00 75 1022.0
20260509042507 62 315 2.0 5.0 0.00 0.00 0.00 74 1021.7
20260509042007 62 135 1.0 5.0 0.00 0.00 0.00 73 1021.7
20260509041506 62 81 4.0 6.0 0.00 0.00 0.00 72 1021.7
20260509041007 62 252 4.0 5.0 0.00 0.00 0.00 72 1021.7
20260509040507 63 171 5.0 7.0 0.00 0.00 0.00 71 1021.7
20260509040007 63 162 4.0 7.0 0.00 0.00 0.00 69 1021.7
20260509035507 63 171 2.0 5.0 0.00 0.00 0.00 69 1021.7
20260509035007 63 162 5.0 6.0 0.00 0.00 0.00 68 1021.5
20260509034506 63 171 3.0 7.0 0.00 0.00 0.00 67 1021.3
20260509034008 63 113 5.0 6.0 0.00 0.00 0.00 66 1021.3
20260509033507 64 226 5.0 6.0 0.00 0.00 0.00 65 1021.3
20260509033012 64 127 4.0 5.0 0.00 0.00 0.00 65 1021.3
20260509032507 64 261 2.0 5.0 0.00 0.00 0.00 65 1021.2
20260509032007 64 234 4.0 7.0 0.00 0.00 0.00 64 1021.0
20260509031507 64 117 6.0 9.0 0.00 0.00 0.00 63 1021.0
20260509031007 64 243 4.0 6.0 0.00 0.00 0.00 62 1021.0
20260509030506 64 91 3.0 5.0 0.00 0.00 0.00 61 1021.0
20260509030007 65 135 6.0 7.0 0.00 0.00 0.00 60 1021.0
20260509025507 65 280 5.0 8.0 0.00 0.00 0.00 59 1021.0
20260509025007 65 198 6.0 10.0 0.00 0.00 0.00 58 1021.0
20260509024507 66 172 3.0 5.0 0.00 0.00 0.00 58 1021.0
20260509024007 66 135 3.0 6.0 0.00 0.00 0.00 57 1021.0
20260509023507 66 315 0.0 0.0 0.00 0.00 0.00 57 1020.9
20260509023007 67 279 1.0 3.0 0.00 0.00 0.00 57 1020.7
20260509022507 67 225 0.0 0.0 0.00 0.00 0.00 56 1020.7
20260509022006 67 225 0.0 4.0 0.00 0.00 0.00 56 1020.7
20260509021507 67 279 2.0 4.0 0.00 0.00 0.00 55 1020.7
20260509021007 67 261 1.0 3.0 0.00 0.00 0.00 55 1020.7
20260509020507 67 225 1.0 2.0 0.00 0.00 0.00 54 1020.9
20260509020007 67 243 0.0 0.0 0.00 0.00 0.00 54 1020.8
20260509015507 67 225 0.0 1.0 0.00 0.00 0.00 53 1020.7
20260509015007 68 225 0.0 0.0 0.00 0.00 0.00 53 1020.7
20260509014507 68 180 1.0 2.0 0.00 0.00 0.00 53 1020.9
20260509014008 68 0 2.0 6.0 0.00 0.00 0.00 53 1020.7
20260509013507 68 135 1.0 5.0 0.00 0.00 0.00 52 1020.9
20260509013007 68 45 1.0 3.0 0.00 0.00 0.00 53 1021.0
20260509012507 68 171 2.0 5.0 0.00 0.00 0.00 52 1021.0
20260509012007 69 270 0.0 2.0 0.00 0.00 0.00 51 1021.0
20260509011507 69 306 1.0 2.0 0.00 0.00 0.00 51 1021.0
20260509011007 69 262 3.0 5.0 0.00 0.00 0.00 52 1021.0
20260509010507 69 315 2.0 5.0 0.00 0.00 0.00 52 1021.0
20260509010008 69 307 4.0 6.0 0.00 0.00 0.00 51 1021.0
20260509005507 70 27 2.0 5.0 0.00 0.00 0.00 50 1021.0
20260509005007 70 0 0.0 5.0 0.00 0.00 0.00 49 1021.0
20260509004507 71 99 5.0 7.0 0.00 0.00 0.00 49 1021.0
20260509004007 71 315 1.0 4.0 0.00 0.00 0.00 49 1021.0
20260509003507 71 315 1.0 6.0 0.00 0.00 0.00 48 1021.0
20260509003007 71 216 4.0 6.0 0.00 0.00 0.00 48 1021.0
20260509002507 71 235 5.0 6.0 0.00 0.00 0.00 47 1021.0
20260509002007 72 171 4.0 6.0 0.00 0.00 0.00 47 1021.0
20260509001507 72 189 4.0 6.0 0.00 0.00 0.00 48 1021.0
20260509001006 71 243 3.0 6.0 0.00 0.00 0.00 48 1021.0
20260509000508 72 180 4.0 6.0 0.00 0.00 0.00 48 1021.0
20260509000007 72 0 1.0 3.0 0.00 0.00 0.00 46 1021.0
20260508235506 72 63 3.0 7.0 0.00 0.00 0.00 47 1021.1
20260508235007 72 225 6.0 7.0 0.00 0.00 0.00 47 1021.0
20260508234507 72 90 5.0 6.0 0.00 0.00 0.00 46 1021.0
20260508234007 73 207 5.0 7.0 0.00 0.00 0.00 45 1021.0
20260508233507 72 171 3.0 5.0 0.00 0.00 0.00 46 1021.0
20260508233008 72 171 5.0 7.0 0.00 0.00 0.00 46 1021.1
20260508232507 72 108 6.0 9.0 0.00 0.00 0.00 46 1021.3
20260508232007 73 189 6.0 7.0 0.00 0.00 0.00 46 1021.2
20260508231508 73 90 6.0 7.0 0.00 0.00 0.00 45 1021.3
20260508231007 74 81 7.0 8.0 0.00 0.00 0.00 45 1021.0
20260508230507 74 126 6.0 7.0 0.00 0.00 0.00 46 1021.0
20260508230007 73 108 5.0 8.0 0.00 0.00 0.00 46 1021.0
20260508225506 73 252 7.0 8.0 0.00 0.00 0.00 46 1021.0
20260508225007 73 91 4.0 6.0 0.00 0.00 0.00 46 1021.0
20260508224507 73 253 3.0 7.0 0.00 0.00 0.00 46 1021.1
20260508224007 73 135 6.0 8.0 0.00 0.00 0.00 46 1021.3
20260508223507 72 90 5.0 6.0 0.00 0.00 0.00 47 1021.3
20260508223007 73 144 2.0 6.0 0.00 0.00 0.00 46 1021.3
20260508222507 73 124 2.0 5.0 0.00 0.00 0.00 46 1021.3
20260508222007 73 180 6.0 6.0 0.00 0.00 0.00 48 1021.3
20260508221506 73 153 6.0 8.0 0.00 0.00 0.00 46 1021.3
20260508221007 72 108 6.0 7.0 0.00 0.00 0.00 47 1021.3
20260508220507 71 126 6.0 7.0 0.00 0.00 0.00 49 1021.3
20260508220007 71 153 7.0 9.0 0.00 0.00 0.00 47 1021.6
20260508215507 72 108 6.0 8.0 0.00 0.00 0.00 47 1021.5
20260508215006 72 81 4.0 7.0 0.00 0.00 0.00 47 1021.5
20260508214507 72 153 7.0 9.0 0.00 0.00 0.00 47 1021.3
20260508214007 71 108 5.0 8.0 0.00 0.00 0.00 49 1021.3
20260508213507 70 208 7.0 9.0 0.00 0.00 0.00 49 1021.6
20260508213007 70 90 7.0 9.0 0.00 0.00 0.00 49 1021.7
20260508212507 70 135 4.0 7.0 0.00 0.00 0.00 49 1021.7
20260508212007 70 180 2.0 5.0 0.00 0.00 0.00 50 1021.7
20260508211507 69 144 1.0 5.0 0.00 0.00 0.00 50 1021.7
20260508211007 69 153 6.0 7.0 0.00 0.00 0.00 50 1021.7
20260508210507 68 36 4.0 7.0 0.00 0.00 0.00 52 1021.7
20260508210007 66 180 1.0 6.0 0.00 0.00 0.00 53 1021.7
20260508205507 66 180 6.0 8.0 0.00 0.00 0.00 53 1021.9
20260508205007 66 36 3.0 7.0 0.00 0.00 0.00 52 1021.7
20260508204507 67 54 3.0 6.0 0.00 0.00 0.00 51 1021.7
20260508204007 68 144 6.0 7.0 0.00 0.00 0.00 52 1021.7
20260508203507 67 117 6.0 6.0 0.00 0.00 0.00 52 1021.7
20260508203007 66 108 6.0 7.0 0.00 0.00 0.00 52 1021.7
20260508202507 66 144 3.0 5.0 0.00 0.00 0.00 54 1021.9
20260508202007 66 113 1.0 5.0 0.00 0.00 0.00 52 1022.0
20260508201507 67 90 4.0 6.0 0.00 0.00 0.00 51 1022.0
20260508201007 67 135 6.0 7.0 0.00 0.00 0.00 52 1022.0
20260508200507 66 135 6.0 7.0 0.00 0.00 0.00 53 1022.0
20260508200007 66 172 5.0 7.0 0.00 0.00 0.00 53 1022.0
20260508195508 66 126 6.0 8.0 0.00 0.00 0.00 55 1022.0
20260508195007 65 126 6.0 8.0 0.00 0.00 0.00 55 1022.0
20260508194507 65 180 5.0 6.0 0.00 0.00 0.00 55 1022.0
20260508194007 65 216 6.0 7.0 0.00 0.00 0.00 55 1022.0
20260508193507 65 113 6.0 6.0 0.00 0.00 0.00 54 1022.0
20260508193007 65 135 7.0 8.0 0.00 0.00 0.00 54 1022.0
20260508192507 64 245 6.0 9.0 0.00 0.00 0.00 56 1022.0
20260508192007 64 316 4.0 6.0 0.00 0.00 0.00 57 1022.0
20260508191507 64 108 6.0 7.0 0.00 0.00 0.00 56 1022.3
20260508191007 64 198 6.0 8.0 0.00 0.00 0.00 57 1022.3
20260508190506 63 117 6.0 7.0 0.00 0.00 0.00 57 1022.4
20260508190007 63 171 8.0 9.0 0.00 0.00 0.00 58 1022.4
20260508185507 62 162 5.0 6.0 0.00 0.00 0.00 61 1022.4
20260508185007 61 144 6.0 8.0 0.00 0.00 0.00 63 1022.4
20260508184507 60 153 8.0 9.0 0.00 0.00 0.00 62 1022.4
20260508184006 60 144 5.0 6.0 0.00 0.00 0.00 67 1022.4
20260508183507 59 153 4.0 5.0 0.00 0.00 0.00 66 1022.4
20260508183008 59 99 7.0 8.0 0.00 0.00 0.00 67 1022.4
20260508182507 59 162 6.0 8.0 0.00 0.00 0.00 68 1022.4
20260508182008 59 162 7.0 9.0 0.00 0.00 0.00 66 1022.4
20260508181507 59 126 7.0 9.0 0.00 0.00 0.00 70 1022.4
20260508181007 59 108 6.0 7.0 0.00 0.00 0.00 73 1022.3
20260508180507 58 135 6.0 7.0 0.00 0.00 0.00 75 1022.2
20260508180007 58 199 6.0 7.0 0.00 0.00 0.00 75 1022.0
20260508175507 58 153 6.0 7.0 0.00 0.00 0.00 75 1022.0
20260508175006 57 108 6.0 7.0 0.00 0.00 0.00 80 1022.0
20260508174507 57 108 5.0 6.0 0.00 0.00 0.00 82 1022.0
20260508174007 56 180 6.0 8.0 0.00 0.00 0.00 83 1022.0
20260508173507 56 117 5.0 7.0 0.00 0.00 0.00 84 1022.0
20260508173007 56 135 5.0 9.0 0.00 0.00 0.00 85 1022.0
20260508172507 56 169 7.0 7.0 0.00 0.00 0.00 83 1022.0
20260508172008 57 146 3.0 8.0 0.00 0.00 0.00 84 1022.0
20260508171507 57 263 5.0 8.0 0.00 0.00 0.00 85 1021.7
20260508171007 56 162 5.0 7.0 0.00 0.00 0.00 85 1021.7
20260508170507 56 90 2.0 5.0 0.00 0.00 0.00 88 1021.7
20260508170007 56 117 5.0 6.0 0.00 0.00 0.00 89 1021.7
20260508165507 55 135 1.0 3.0 0.00 0.00 0.00 89 1021.6
20260508165006 55 162 3.0 6.0 0.00 0.00 0.00 88 1021.3
20260508164507 55 180 2.0 5.0 0.00 0.00 0.00 91 1021.3
20260508164007 55 180 3.0 6.0 0.00 0.00 0.00 90 1021.3
20260508163507 55 144 6.0 8.0 0.00 0.00 0.00 89 1021.3
20260508163007 55 117 4.0 9.0 0.00 0.00 0.00 88 1021.3
20260508162507 55 180 4.0 9.0 0.00 0.00 0.00 89 1021.3
20260508162007 55 144 3.0 6.0 0.00 0.00 0.00 87 1021.5
20260508161506 55 144 2.0 5.0 0.00 0.00 0.00 90 1021.2
20260508161007 55 0 1.0 5.0 0.00 0.00 0.00 91 1021.0
20260508160507 54 72 2.0 5.0 0.00 0.00 0.00 91 1021.3
20260508160007 54 90 2.0 5.0 0.00 0.00 0.00 92 1021.0
20260508155507 54 90 2.0 3.0 0.00 0.00 0.00 92 1021.0
20260508155007 54 90 1.0 2.0 0.00 0.00 0.00 93 1021.3
20260508154507 53 90 0.0 1.0 0.00 0.00 0.00 93 1021.1
20260508154007 53 126 1.0 3.0 0.00 0.00 0.00 93 1021.0
20260508153507 53 180 0.0 1.0 0.00 0.00 0.00 93 1021.0
20260508153007 53 117 4.0 5.0 0.00 0.00 0.00 93 1021.0
20260508152506 53 135 0.0 0.0 0.00 0.00 0.00 93 1021.3
20260508152007 53 171 3.0 5.0 0.00 0.00 0.00 94 1021.3
20260508151507 52 135 2.0 8.0 0.00 0.00 0.00 94 1021.3
20260508151007 52 0 1.0 5.0 0.00 0.00 0.00 94 1021.3
20260508150507 52 45 1.0 3.0 0.00 0.00 0.00 94 1021.3
20260508150007 52 180 2.0 4.0 0.00 0.00 0.00 94 1021.3
20260508145507 52 135 1.0 1.0 0.00 0.00 0.00 94 1021.3
20260508145007 52 171 4.0 7.0 0.00 0.00 0.00 94 1021.5
20260508144507 52 9 2.0 5.0 0.00 0.00 0.00 94 1021.7
20260508144007 51 153 5.0 7.0 0.00 0.00 0.00 94 1021.7
20260508143507 51 180 0.0 1.0 0.00 0.00 0.00 95 1021.5
20260508143007 51 180 4.0 6.0 0.00 0.00 0.00 95 1021.6
20260508142507 50 180 1.0 4.0 0.00 0.00 0.00 95 1021.3
20260508142007 50 162 2.0 5.0 0.00 0.00 0.00 95 1021.3
20260508141507 49 162 3.0 6.0 0.00 0.00 0.00 96 1021.2
20260508141007 49 180 0.0 1.0 0.00 0.00 0.00 96 1021.0
20260508140507 49 180 1.0 3.0 0.00 0.00 0.00 96 1021.0
20260508140007 49 180 1.0 3.0 0.00 0.00 0.00 96 1021.0
20260508135507 48 180 1.0 3.0 0.00 0.00 0.00 96 1020.8
20260508135007 48 180 0.0 4.0 0.00 0.00 0.00 96 1020.7
20260508134507 48 180 1.0 4.0 0.00 0.00 0.00 97 1020.7
20260508134006 48 180 1.0 5.0 0.00 0.00 0.00 97 1020.5
20260508133507 48 207 1.0 5.0 0.00 0.00 0.00 97 1020.3
20260508133007 48 315 0.0 0.0 0.00 0.00 0.00 97 1020.3
20260508132507 48 315 0.0 0.0 0.00 0.00 0.00 97 1020.0
20260508132007 49 315 0.0 0.0 0.00 0.00 0.00 97 1020.0
20260508131507 49 315 0.0 0.0 0.00 0.00 0.00 97 1020.0
20260508131007 49 315 0.0 0.0 0.00 0.00 0.00 97 1020.0
20260508130507 49 315 0.0 0.0 0.00 0.00 0.00 97 1019.6
20260508130007 49 315 0.0 0.0 0.00 0.00 0.00 97 1019.6
20260508125507 49 315 0.0 0.0 0.00 0.00 0.00 97 1019.5
20260508125007 50 315 0.0 0.0 0.00 0.00 0.00 97 1019.3
20260508124507 50 315 0.0 0.0 0.00 0.00 0.00 96 1019.4
20260508124008 50 315 0.0 0.0 0.00 0.00 0.00 97 1019.3
20260508123506 50 315 0.0 0.0 0.00 0.00 0.00 97 1019.3
20260508123007 50 315 0.0 0.0 0.00 0.00 0.00 97 1019.3
20260508122507 50 315 0.0 0.0 0.00 0.00 0.00 97 1019.3
20260508122007 50 315 0.0 0.0 0.00 0.00 0.00 97 1019.2
20260508121507 50 315 0.0 0.0 0.00 0.00 0.00 97 1019.0
20260508121006 50 315 0.0 0.0 0.00 0.00 0.00 97 1019.0
20260508120507 50 315 0.0 0.0 0.00 0.00 0.00 97 1019.1
20260508120007 50 315 1.0 5.0 0.00 0.00 0.00 97 1019.0
20260508115507 50 252 1.0 5.0 0.00 0.00 0.00 97 1019.0
20260508115007 50 0 0.0 0.0 0.00 0.00 0.00 97 1019.0
20260508114507 50 0 0.0 0.0 0.00 0.00 0.00 97 1019.0
20260508114007 50 0 0.0 1.0 0.00 0.00 0.00 97 1019.0
20260508113507 50 288 0.0 0.0 0.00 0.00 0.00 97 1018.8
20260508113007 50 270 0.0 0.0 0.00 0.00 0.00 97 1018.6
20260508112507 50 279 0.0 0.0 0.00 0.00 0.00 97 1018.6
20260508112007 50 270 0.0 0.0 0.00 0.00 0.00 97 1018.6
20260508111507 50 270 0.0 0.0 0.00 0.00 0.00 97 1018.6
20260508111007 50 279 0.0 0.0 0.00 0.00 0.00 97 1018.3
20260508110507 50 279 0.0 0.0 0.00 0.00 0.00 97 1018.3
20260508110007 50 279 0.0 0.0 0.00 0.00 0.00 97 1018.3
20260508105507 50 279 0.0 0.0 0.00 0.00 0.00 97 1018.3
20260508105007 50 279 0.0 0.0 0.00 0.00 0.00 97 1018.3
20260508104507 50 279 0.0 0.0 0.00 0.00 0.00 97 1018.3
20260508104008 50 288 0.0 0.0 0.00 0.00 0.00 97 1018.3
20260508103507 50 279 0.0 0.0 0.00 0.00 0.00 97 1018.2
20260508103006 50 270 0.0 0.0 0.00 0.00 0.00 97 1018.0
20260508102507 50 270 0.0 0.0 0.00 0.00 0.00 97 1018.0
20260508102007 50 279 0.0 0.0 0.00 0.00 0.00 97 1018.0
20260508101507 50 281 0.0 0.0 0.00 0.00 0.00 97 1018.0
20260508101007 50 270 0.0 0.0 0.00 0.00 0.00 97 1018.0
20260508100507 50 279 0.0 0.0 0.00 0.00 0.00 97 1018.0
20260508100007 50 270 0.0 0.0 0.00 0.00 0.00 97 1018.0
20260508095507 50 270 0.0 0.0 0.00 0.00 0.00 96 1017.9
20260508095007 50 279 0.0 0.0 0.00 0.00 0.00 96 1017.6
20260508094506 50 270 0.0 0.0 0.00 0.00 0.00 96 1017.6
20260508094008 50 270 0.0 0.0 0.00 0.00 0.00 96 1017.6
20260508093507 50 279 0.0 0.0 0.00 0.00 0.00 96 1017.6
20260508093007 50 279 0.0 0.0 0.00 0.00 0.00 96 1017.6
20260508092506 51 297 0.0 0.0 0.00 0.00 0.00 96 1017.6
20260508092007 51 279 0.0 0.0 0.00 0.00 0.00 96 1017.6
20260508091507 51 288 0.0 0.0 0.00 0.00 0.00 96 1017.6
20260508091007 51 288 0.0 0.0 0.00 0.00 0.00 96 1017.6
20260508090507 51 279 0.0 0.0 0.00 0.00 0.00 96 1017.6
20260508090007 51 270 0.0 0.0 0.00 0.00 0.00 95 1017.5
20260508085507 51 288 0.0 0.0 0.00 0.00 0.00 95 1017.3
20260508085007 51 288 0.0 0.0 0.00 0.00 0.00 95 1017.3
20260508084508 51 279 0.0 0.0 0.00 0.00 0.00 95 1017.3
20260508084008 51 297 0.0 0.0 0.00 0.00 0.00 95 1017.3
20260508083507 51 270 0.0 0.0 0.00 0.00 0.00 94 1017.3
20260508083007 52 270 0.0 0.0 0.00 0.00 0.00 94 1017.3
20260508082506 52 279 0.0 0.0 0.00 0.00 0.00 94 1017.3
20260508082007 52 270 0.0 0.0 0.00 0.00 0.00 94 1017.3
20260508081507 52 279 0.0 0.0 0.00 0.00 0.00 94 1017.3
20260508081007 52 270 0.0 0.0 0.00 0.00 0.00 94 1017.3
20260508080507 52 270 0.0 0.0 0.00 0.00 0.00 94 1016.9
20260508080007 52 270 0.0 0.0 0.00 0.00 0.00 93 1016.9
20260508075507 53 279 0.0 0.0 0.00 0.00 0.00 93 1016.9
20260508075007 53 288 0.0 0.0 0.00 0.00 0.00 93 1016.9
20260508074507 53 270 0.0 0.0 0.00 0.00 0.00 93 1016.9
20260508074007 53 270 0.0 0.0 0.00 0.00 0.00 93 1016.9
20260508073507 53 270 0.0 0.0 0.00 0.00 0.00 93 1016.9
20260508073007 54 279 0.0 0.0 0.00 0.00 0.00 92 1016.9